Left ArrowRight Arrow

41.76142, -88.44369

Hourly Observations for May 15, 2024

Temp ( °F °C ) Dew Point ( °F °C ) Humidity (%) Winds ( mph kmh ) Pressure ( in mb ) Visibility ( mi km ) Precip ( " mm )
12:52 am 00:52 Clear 51 10.6 40 4.4 65 65 NNE 10 17 29.80 1009 10 16 0.00 0.00
1:52 am 01:52 Clear 50 10 42 5.6 74 74 NNE 9 15 29.79 1009 10 16 0.00 0.00
2:52 am 02:52 Clear 50 10 43 6.1 77 77 NNE 8 13 29.78 1009 9 14 0.00 0.00
3:52 am 03:52 Clear 49 9.4 43 6.1 80 80 N 8 13 29.79 1009 10 16 0.00 0.00
4:52 am 04:52 Clear 49 9.4 43 6.1 80 80 NNE 8 13 29.80 1009 10 16 0.00 0.00
5:52 am 05:52 Mostly Sunny 50 10 44 6.7 80 80 NNE 10 17 29.81 1010 9 14 0.00 0.00
6:52 am 06:52 Sunny 52 11.1 44 6.7 74 74 NNE 13 20 29.82 1010 9 14 0.00 0.00
7:52 am 07:52 Sunny 55 12.8 45 7.2 69 69 NNE 12 19 29.84 1011 9 14 0.00 0.00
8:52 am 08:52 Sunny 59 15 46 7.8 62 62 NE 13 20 29.85 1011 9 14 0.00 0.00
9:52 am 09:52 Sunny 63 17.2 48 8.9 58 58 NNE 10 17 29.87 1012 8 13 0.00 0.00
10:52 am 10:52 Sunny 65 18.3 48 8.9 54 54 NE 13 20 29.87 1011 7 11 0.00 0.00
11:52 am 11:52 Sunny 68 20 48 8.9 49 49 NE 15 24 29.86 1011 7 11 0.00 0.00
12:52 pm 12:52 Sunny 70 21.1 45 7.2 41 41 NE 16 26 29.84 1011 8 13 0.00 0.00
1:52 pm 13:52 Sunny 71 21.7 45 7.2 39 39 ENE 18 30 29.83 1010 8 13 0.00 0.00
2:52 pm 14:52 Sunny 72 22.2 41 5 33 33 NE 14 22 29.83 1010 9 14 0.00 0.00
3:52 pm 15:52 Sunny 72 22.2 41 5 33 33 E 13 20 29.84 1011 7 11 0.00 0.00
4:52 pm 16:52 Sunny 71 21.7 42 5.6 35 35 E 12 19 29.86 1011 8 13 0.00 0.00
5:52 pm 17:52 Sunny 70 21.1 42 5.6 36 36 E 12 19 29.85 1011 7 11 0.00 0.00
6:52 pm 18:52 Sunny 68 20 42 5.6 39 39 E 9 15 29.84 1011 7 11 0.00 0.00
7:52 pm 19:52 Sunny 64 17.8 40 4.4 41 41 E 7 11 29.85 1011 8 13 0.00 0.00
8:52 pm 20:52 Clear 60 15.6 40 4.4 47 47 E 5 7 29.86 1011 10 16 0.00 0.00
9:52 pm 21:52 Clear 57 13.9 41 5 55 55 ENE 6 9 29.88 1012 10 16 0.00 0.00
10:52 pm 22:52 Clear 55 12.8 40 4.4 57 57 E 6 9 29.89 1012 10 16 0.00 0.00
11:52 pm 23:52 Clear 54 12.2 41 5 61 61 E 8 13 29.87 1011 9 14 0.00 0.00

Powered by Vaisala Xweather